Retour au catalogue

VELA 2

LostMilitaireHEO
NORAD 674·PAYLOAD·🇺🇸 United States

Lancé Oct 17, 1963 depuis Cape Canaveral Space Force Station

Loading…

Prochains Passages (prochaines 24 heures)

TLE

PériméSource: Space-Track

Époque: Aug 12, 2026, 08:25 UTC

1 00674U 63039A   26224.35111229 -.00000709  00000-0  00000-0 0  9995
2 00674  47.8631  92.8572 6522159  86.9089 359.7597  0.22186319  9502

Suivez VELA 2 en temps réel avec AllMySat

Download on the App Store